Location: Grand Rapids
(42.9630°N, 85.6680°W)
Time: 01:57:33
(UTC-04:00)

A-11 Canister half - Pass Details

Date: 30 May 2024
Orbit: 1524 x 1684 km, 47.3° (Epoch: 21 June)

Event Time Altitude Azimuth Distance (km) Brightness Sun altitude
Rises 02:19:17 0° 294° (WNW) 4,735 11.7 -24.6°
Reaches altitude 10° 02:22:19 10° 293° (WNW) 3,768 11.2 -24.5°
Maximum altitude 02:31:52 74° 211° (SSW) 1,662 8.9 -24.1°
Drops below altitude 10° 02:41:44 10° 128° (SE) 3,884 10.9 -23.7°
Sets 02:44:54 0° 127° (SE) 4,887 11.4 -23.5°
